TJS-6

Last updated on Mon Oct 20 2025 00:02:50 GMT+0000 (Coordinated Universal Time)

1 47613U 21010A 25292.30947388 .00000041 00000+0 00000+0 0 9990 2 47613 0.0353 228.9757 0001235 79.8832 9.0700 1.00274400 17396
UTC large
Height (km)
Speed (km/s)
/
Latitude / Longitude
Inclination (degrees)
Orbital Period (minutes)
Azimuth
Elevation
Range (km)
Doppler Factor

Next 0 passes for location: London (51.5072 / 0.1276)

Sorry there are no passes over London.